Newark, OH

12:32 PM EDT on September 25, 2016 (GMT -0400)
Newark Heath

Weather History for KVTA - December, 2012

Change the Weather History Date:

Thursday, December 6, 2012

  Actual Average Record
Temperature  
Mean Temperature 36 °F -  
Max Temperature 45 °F 43 °F 67 °F (1956)
Min Temperature 26 °F 26 °F 1 °F (2007)
Degree Days  
Heating Degree Days 30    
Moisture  
Dew Point 28 °F    
Average Humidity 74    
Maximum Humidity 86    
Minimum Humidity 53    
Precipitation  
Precipitation 0.00 in - - ()
Sea Level Pressure  
Sea Level Pressure 30.17 in    
Wind  
Wind Speed 2 mph (East)    
Max Wind Speed 6 mph    
Max Gust Speed -    
Visibility 10 miles    
Events Rain    
Averages and records for this station are not official NWS values.
T = Trace of Precipitation, MM = Missing Value Source: NWS Daily Summary

Daily Weather History Graph

Daily Weather History Graph

Search for Another Location

Airport or City:

Trip Planner

Search our weather history database for the weather conditions in past years. The results will help you decide how hot, cold, wet, or windy it might be!

Date:

Astronomy

Dec. 06, 2012 Rise Set
Actual Time 7:37 AM EST 5:04 PM EST
Civil Twilight 7:07 AM EST 5:34 PM EST
Nautical Twilight 6:33 AM EST 6:08 PM EST
Astronomical Twilight 6:00 AM EST 6:41 PM EST
Moon No Moon Rise 12:29 PM EST (12/6)
Length of Visible Light 10h 27m
Length of Day
9h 26m
Waning Gibbous, 49% of the Moon is Illuminated
Dec 6
Waning Gibbous
Dec 13
New
Dec 20
First Quarter
Dec 28
Full
Jan 4
Last Quarter

Hourly Weather History & Observations

Time (EST) Temp. Windchill Dew Point Humidity Pressure Visibility Wind Dir Wind Speed Gust Speed Precip Events Conditions
12:54 AM 28.9 °F - 21.9 °F 75% 30.35 in 10.0 mi Calm Calm - N/A   Clear
1:54 AM 26.1 °F - 21.9 °F 84% 30.34 in 10.0 mi Calm Calm - N/A   Clear
2:54 AM 28.0 °F 24.2 °F 21.9 °F 78% 30.32 in 10.0 mi NNE 3.5 mph - N/A   Clear
3:54 AM 27.0 °F 23.0 °F 21.9 °F 81% 30.30 in 10.0 mi NE 3.5 mph - N/A   Clear
4:54 AM 26.1 °F 21.9 °F 21.0 °F 81% 30.30 in 10.0 mi North 3.5 mph - N/A   Clear
5:54 AM 26.1 °F - 21.9 °F 84% 30.30 in 10.0 mi Calm Calm - N/A   Clear
6:54 AM 26.1 °F - 21.0 °F 81% 30.30 in 10.0 mi Calm Calm - N/A   Clear
7:54 AM 26.1 °F 20.5 °F 21.0 °F 81% 30.28 in 10.0 mi NE 4.6 mph - N/A   Clear
8:54 AM 28.9 °F 25.2 °F 23.0 °F 78% 30.28 in 10.0 mi ENE 3.5 mph - N/A   Clear
9:54 AM 33.1 °F 28.7 °F 25.0 °F 72% 30.25 in 10.0 mi ENE 4.6 mph - N/A   Clear
10:54 AM 37.9 °F 33.5 °F 27.0 °F 65% 30.22 in 10.0 mi East 5.8 mph - N/A   Clear
11:54 AM 42.1 °F 39.2 °F 28.9 °F 60% 30.17 in 10.0 mi ESE 4.6 mph - N/A   Clear
12:54 PM 43.0 °F 40.3 °F 28.9 °F 58% 30.14 in 10.0 mi South 4.6 mph - N/A   Clear
1:54 PM 44.1 °F 42.5 °F 28.9 °F 55% 30.12 in 10.0 mi SSE 3.5 mph - N/A   Clear
2:54 PM 45.0 °F 43.5 °F 28.9 °F 53% 30.09 in 10.0 mi SSE 3.5 mph - N/A   Clear
3:54 PM 45.0 °F 43.5 °F 30.9 °F 58% 30.08 in 10.0 mi SE 3.5 mph - N/A   Clear
4:54 PM 41.0 °F 38.0 °F 30.0 °F 65% 30.08 in 10.0 mi East 4.6 mph - N/A   Clear
5:54 PM 37.9 °F - 30.0 °F 73% 30.07 in 10.0 mi Calm Calm - N/A   Partly Cloudy
6:54 PM 37.0 °F - 32.0 °F 82% 30.08 in 10.0 mi Calm Calm - N/A   Overcast
7:54 PM 39.0 °F - 33.1 °F 79% 30.07 in 10.0 mi Calm Calm - N/A   Mostly Cloudy
8:54 PM 39.9 °F - 35.1 °F 83% 30.06 in 10.0 mi Calm Calm - N/A   Overcast
9:54 PM 41.0 °F - 36.0 °F 82% 30.04 in 10.0 mi Calm Calm - N/A   Overcast
10:54 PM 41.0 °F - 37.0 °F 86% 30.03 in 10.0 mi Calm Calm - 0.00 in   Overcast
11:13 PM 42.8 °F - 37.4 °F 81% 30.01 in 10.0 mi Calm Calm - 0.00 in   Overcast
11:54 PM 42.1 °F - 37.9 °F 85% 30.02 in 9.0 mi Calm Calm - 0.00 in Rain Light Rain